Time,TemperatureF,DewpointF,PressureIn,WindDirection,WindDirectionDegrees,WindSpeedMPH,WindSpeedGustMPH,Humidity,HourlyPrecipIn,Conditions,Clouds,dailyrainin,SoftwareType,DateUTC
2013-07-19 00:02:00,82.0,73.0,30.00,East,86,0.0,2.0,74,0.00,,,0.00,,2013-07-19 04:02:00,
2013-07-19 00:22:00,82.0,73.0,30.00,East,101,1.0,1.0,75,0.00,,,0.00,,2013-07-19 04:22:00,
2013-07-19 00:33:00,81.0,72.0,30.00,ESE,114,0.0,4.0,75,0.00,,,0.00,,2013-07-19 04:33:00,
2013-07-19 00:44:00,81.0,73.0,30.00,ESE,115,1.0,4.0,76,0.00,,,0.00,,2013-07-19 04:44:00,
2013-07-19 00:52:00,81.0,73.0,30.00,East,100,1.0,2.0,76,0.00,,,0.00,,2013-07-19 04:52:00,
2013-07-19 01:11:00,81.0,73.0,29.99,ENE,69,1.0,2.0,77,0.00,,,0.00,,2013-07-19 05:11:00,
2013-07-19 01:53:00,80.0,73.0,29.99,NNE,20,1.0,3.0,80,0.00,,,0.00,,2013-07-19 05:53:00,
2013-07-19 02:01:00,80.0,74.0,30.00,ESE,102,1.0,3.0,81,0.00,,,0.00,,2013-07-19 06:01:00,
2013-07-19 02:11:00,79.0,73.0,29.98,East,101,1.0,1.0,82,0.00,,,0.00,,2013-07-19 06:11:00,
2013-07-19 02:22:00,79.0,73.0,29.99,East,101,0.0,1.0,82,0.00,,,0.00,,2013-07-19 06:22:00,
2013-07-19 02:33:00,79.0,73.0,29.98,ENE,71,1.0,3.0,83,0.00,,,0.00,,2013-07-19 06:33:00,
2013-07-19 02:43:00,79.0,73.0,29.98,East,99,0.0,2.0,83,0.00,,,0.00,,2013-07-19 06:43:00,
2013-07-19 02:52:00,79.0,73.0,29.98,East,98,1.0,2.0,83,0.00,,,0.00,,2013-07-19 06:52:00,
2013-07-19 03:01:00,79.0,73.0,29.98,ENE,67,2.0,3.0,83,0.00,,,0.00,,2013-07-19 07:01:00,
2013-07-19 03:12:00,79.0,73.0,29.98,ENE,67,2.0,3.0,83,0.00,,,0.00,,2013-07-19 07:12:00,
2013-07-19 03:32:00,78.0,73.0,29.97,East,84,0.0,3.0,84,0.00,,,0.00,,2013-07-19 07:32:00,
2013-07-19 03:43:00,78.0,73.0,29.96,East,84,1.0,1.0,85,0.00,,,0.00,,2013-07-19 07:43:00,
2013-07-19 03:53:00,78.0,73.0,29.96,East,86,0.0,1.0,85,0.00,,,0.00,,2013-07-19 07:53:00,
2013-07-19 04:01:00,78.0,73.0,29.96,ENE,67,1.0,2.0,86,0.00,,,0.00,,2013-07-19 08:01:00,
2013-07-19 04:12:00,78.0,73.0,29.96,ENE,67,1.0,2.0,86,0.00,,,0.00,,2013-07-19 08:12:00,
2013-07-19 04:22:00,78.0,73.0,29.96,ENE,67,1.0,2.0,86,0.00,,,0.00,,2013-07-19 08:22:00,
2013-07-19 04:33:00,77.0,72.0,29.95,East,79,1.0,2.0,86,0.00,,,0.00,,2013-07-19 08:33:00,
2013-07-19 04:43:00,77.0,72.0,29.95,East,80,1.0,2.0,86,0.00,,,0.00,,2013-07-19 08:43:00,
2013-07-19 04:52:00,77.0,72.0,29.94,East,80,0.0,1.0,86,0.00,,,0.00,,2013-07-19 08:52:00,
2013-07-19 05:02:00,77.0,72.0,29.94,East,80,0.0,1.0,86,0.00,,,0.00,,2013-07-19 09:02:00,
2013-07-19 05:11:00,77.0,73.0,29.95,East,101,0.0,1.0,87,0.00,,,0.00,,2013-07-19 09:11:00,
2013-07-19 05:32:00,76.0,72.0,29.94,East,84,0.0,2.0,87,0.00,,,0.00,,2013-07-19 09:32:00,
2013-07-19 06:43:00,75.0,72.0,29.94,ENE,75,1.0,2.0,90,0.00,,,0.00,,2013-07-19 10:43:00,
2013-07-19 07:12:00,75.0,72.0,29.94,East,81,1.0,2.0,90,0.00,,,0.00,,2013-07-19 11:12:00,
2013-07-19 07:22:00,75.0,72.0,29.94,East,81,1.0,2.0,90,0.00,,,0.00,,2013-07-19 11:22:00,
2013-07-19 07:33:00,76.0,72.0,29.94,NNW,335,2.0,3.0,88,0.00,,,0.00,,2013-07-19 11:33:00,
2013-07-19 07:43:00,76.0,72.0,29.94,NNE,13,1.0,3.0,87,0.00,,,0.00,,2013-07-19 11:43:00,
2013-07-19 08:12:00,77.0,72.0,29.94,ENE,65,2.0,3.0,85,0.00,,,0.00,,2013-07-19 12:12:00,
2013-07-19 08:43:00,80.0,73.0,29.95,East,97,2.0,3.0,79,0.00,,,0.00,,2013-07-19 12:43:00,
2013-07-19 08:53:00,80.0,72.0,29.95,ESE,117,1.0,3.0,78,0.00,,,0.00,,2013-07-19 12:53:00,
2013-07-19 09:12:00,82.0,73.0,29.95,East,98,1.0,5.0,75,0.00,,,0.00,,2013-07-19 13:12:00,
2013-07-19 09:22:00,83.0,73.0,29.95,ENE,75,2.0,4.0,72,0.00,,,0.00,,2013-07-19 13:22:00,
2013-07-19 09:53:00,85.0,74.0,29.95,ESE,120,2.0,7.0,69,0.00,,,0.00,,2013-07-19 13:53:00,
2013-07-19 10:02:00,85.0,73.0,29.95,East,94,2.0,7.0,68,0.00,,,0.00,,2013-07-19 14:02:00,
2013-07-19 10:43:00,87.0,74.0,29.94,East,92,2.0,7.0,66,0.00,,,0.00,,2013-07-19 14:43:00,
2013-07-19 10:52:00,87.0,73.0,29.94,NE,42,2.0,5.0,64,0.00,,,0.00,,2013-07-19 14:52:00,
2013-07-19 11:23:00,88.0,73.0,29.94,ENE,75,2.0,7.0,62,0.00,,,0.00,,2013-07-19 15:23:00,
2013-07-19 11:32:00,88.0,73.0,29.94,ENE,75,2.0,7.0,62,0.00,,,0.00,,2013-07-19 15:32:00,
2013-07-19 11:43:00,88.0,73.0,29.94,ENE,75,2.0,7.0,62,0.00,,,0.00,,2013-07-19 15:43:00,
2013-07-19 11:52:00,88.0,73.0,29.94,ENE,75,2.0,7.0,62,0.00,,,0.00,,2013-07-19 15:52:00,
2013-07-19 12:43:00,89.0,74.0,29.93,East,86,3.0,12.0,62,0.00,,,0.00,,2013-07-19 16:43:00,
2013-07-19 12:52:00,88.0,74.0,29.92,ESE,108,3.0,9.0,63,0.00,,,0.00,,2013-07-19 16:52:00,
2013-07-19 13:02:00,89.0,74.0,29.91,East,81,3.0,10.0,62,0.00,,,0.00,,2013-07-19 17:02:00,
2013-07-19 13:12:00,89.0,74.0,29.91,East,81,3.0,10.0,62,0.00,,,0.00,,2013-07-19 17:12:00,
2013-07-19 13:22:00,90.0,73.0,29.91,ESE,106,2.0,8.0,58,0.00,,,0.00,,2013-07-19 17:22:00,
2013-07-19 13:32:00,91.0,74.0,29.91,East,88,2.0,11.0,58,0.00,,,0.00,,2013-07-19 17:32:00,
2013-07-19 13:43:00,91.0,74.0,29.91,East,88,2.0,11.0,58,0.00,,,0.00,,2013-07-19 17:43:00,
2013-07-19 13:52:00,92.0,73.0,29.89,East,93,3.0,9.0,54,0.00,,,0.00,,2013-07-19 17:52:00,
2013-07-19 14:01:00,92.0,73.0,29.89,East,88,2.0,9.0,55,0.00,,,0.00,,2013-07-19 18:01:00,
2013-07-19 14:11:00,92.0,73.0,29.89,ENE,66,3.0,11.0,55,0.00,,,0.00,,2013-07-19 18:11:00,
2013-07-19 14:22:00,92.0,73.0,29.89,ENE,66,3.0,11.0,55,0.00,,,0.00,,2013-07-19 18:22:00,
2013-07-19 14:32:00,91.0,74.0,29.88,NNE,25,3.0,12.0,57,0.00,,,0.00,,2013-07-19 18:32:00,
2013-07-19 15:01:00,91.0,74.0,29.86,East,80,3.0,11.0,57,0.00,,,0.00,,2013-07-19 19:01:00,
2013-07-19 15:22:00,91.0,73.0,29.86,NNW,342,3.0,9.0,55,0.00,,,0.00,,2013-07-19 19:22:00,
2013-07-19 15:32:00,92.0,72.0,29.85,East,88,2.0,16.0,52,0.00,,,0.00,,2013-07-19 19:32:00,
2013-07-19 15:43:00,92.0,73.0,29.85,ESE,108,3.0,11.0,54,0.00,,,0.00,,2013-07-19 19:43:00,
2013-07-19 16:11:00,92.0,72.0,29.83,East,100,2.0,9.0,53,0.00,,,0.00,,2013-07-19 20:11:00,
2013-07-19 16:43:00,92.0,72.0,29.81,NNW,343,4.0,9.0,53,0.00,,,0.00,,2013-07-19 20:43:00,
2013-07-19 16:52:00,92.0,72.0,29.81,NNW,343,4.0,9.0,53,0.00,,,0.00,,2013-07-19 20:52:00,
2013-07-19 17:01:00,92.0,72.0,29.81,NNW,343,4.0,9.0,53,0.00,,,0.00,,2013-07-19 21:01:00,
2013-07-19 18:11:00,90.0,75.0,29.80,NNE,20,5.0,11.0,62,0.00,,,0.00,,2013-07-19 22:11:00,
2013-07-19 18:42:00,89.0,74.0,29.81,North,349,4.0,14.0,61,0.00,,,0.00,,2013-07-19 22:42:00,
2013-07-19 18:52:00,89.0,74.0,29.81,North,349,4.0,14.0,61,0.00,,,0.00,,2013-07-19 22:52:00,
2013-07-19 19:01:00,89.0,74.0,29.81,NW,324,4.0,11.0,62,0.00,,,0.00,,2013-07-19 23:01:00,
2013-07-19 19:11:00,89.0,74.0,29.81,NW,324,4.0,11.0,62,0.00,,,0.00,,2013-07-19 23:11:00,
2013-07-19 19:21:00,89.0,74.0,29.81,NW,324,4.0,11.0,62,0.00,,,0.00,,2013-07-19 23:21:00,
2013-07-19 19:33:00,89.0,74.0,29.81,NW,324,4.0,11.0,62,0.00,,,0.00,,2013-07-19 23:33:00,
2013-07-19 19:52:00,87.0,73.0,29.82,NNE,32,3.0,9.0,64,0.00,,,0.00,,2013-07-19 23:52:00,
2013-07-19 20:01:00,86.0,73.0,29.82,NNW,343,3.0,12.0,66,0.00,,,0.00,,2013-07-20 00:01:00,
2013-07-19 20:11:00,86.0,73.0,29.82,NNW,343,3.0,12.0,66,0.00,,,0.00,,2013-07-20 00:11:00,
2013-07-19 20:22:00,86.0,73.0,29.82,NNW,343,3.0,12.0,66,0.00,,,0.00,,2013-07-20 00:22:00,
2013-07-19 20:32:00,83.0,76.0,29.81,NNE,15,3.0,11.0,79,0.03,,,0.03,,2013-07-20 00:32:00,
2013-07-19 20:43:00,83.0,76.0,29.81,NNE,15,3.0,11.0,79,0.03,,,0.03,,2013-07-20 00:43:00,
2013-07-19 20:52:00,81.0,74.0,29.80,North,9,3.0,11.0,80,0.03,,,0.03,,2013-07-20 00:52:00,
2013-07-19 21:01:00,81.0,75.0,29.79,NNW,336,2.0,11.0,81,0.03,,,0.03,,2013-07-20 01:01:00,
2013-07-19 21:11:00,80.0,74.0,29.80,NW,315,2.0,10.0,81,0.03,,,0.03,,2013-07-20 01:11:00,
2013-07-19 21:22:00,80.0,73.0,29.80,NNE,30,4.0,10.0,80,0.03,,,0.03,,2013-07-20 01:22:00,
2013-07-19 21:32:00,80.0,73.0,29.80,NE,43,2.0,10.0,80,0.00,,,0.03,,2013-07-20 01:32:00,
2013-07-19 21:52:00,79.0,72.0,29.81,NNW,348,3.0,7.0,80,0.00,,,0.03,,2013-07-20 01:52:00,
2013-07-19 22:02:00,79.0,72.0,29.81,North,356,3.0,12.0,79,0.00,,,0.03,,2013-07-20 02:02:00,
2013-07-19 22:11:00,79.0,72.0,29.81,North,11,3.0,12.0,79,0.00,,,0.03,,2013-07-20 02:11:00,
2013-07-19 22:22:00,79.0,72.0,29.81,North,11,3.0,12.0,79,0.00,,,0.03,,2013-07-20 02:22:00,
2013-07-19 22:33:00,78.0,71.0,29.81,NNW,334,3.0,11.0,79,0.00,,,0.03,,2013-07-20 02:33:00,
2013-07-19 22:43:00,78.0,71.0,29.82,NNW,339,4.0,15.0,80,0.00,,,0.03,,2013-07-20 02:43:00,
2013-07-19 22:52:00,78.0,71.0,29.82,NNE,19,2.0,15.0,80,0.00,,,0.03,,2013-07-20 02:52:00,
2013-07-19 23:02:00,78.0,71.0,29.82,NNE,19,2.0,15.0,80,0.00,,,0.03,,2013-07-20 03:02:00,
2013-07-19 23:32:00,78.0,72.0,29.84,NNE,22,2.0,8.0,82,0.00,,,0.03,,2013-07-20 03:32:00,
2013-07-19 23:53:00,78.0,72.0,29.85,NNE,27,2.0,8.0,82,0.00,,,0.03,,2013-07-20 03:53:00,